RH
100 100 100 100 100 98 95 81 77 84 88 91 84 87 83 83 81 75 83 85 83 80 74 71 65 74 92 100 100 100 100 100 100 100 100 100 97 87 76 86 77 77 74
100 100 100 100 100 100 100 100 94 99 96 93 94 91 90 94 95 92 93 99 87 80 74 88 96 96 100 100 100 100 100 100 100 100 100 98 98 90 86 84 82 86 79
100 100 100 100 100 100 100 100 99 96 85 84 83 96 99 100 100 100 100 97 98 100 99 99 95 94 90 93 97 100 100 100 100 98 94 99 99 98 100 96 86 79 100
100 100 100 100 100 100 100 100 100 100 99 95 93 98 100 100 100 100 100 100 100 100 100 100 100 100 100 100 99 100 100 100 100 100 97 90 96 95 94 84 77 98 93
100 100 100 100 100 100 100 100 100 100 100 100 100 100 100 100 100 98 96 100 100 100 100 100 100 100 100 100 100 100 95 88 89 97 100 100 100 99 100 88 100 100 100
100 99 99 98 96 100 100 99 96 97 97 100 100 100 100 100 100 100 100 100 100 100 100 100 100 100 100 100 100 100 100 100 100 100 100 100 100 99 99 100 100 100 100
85 86 87 85 86 86 84 75 76 82 96 94 95 91 74 79 92 100 100 100 100 100 100 100 100 100 100 100 100 100 100 100 100 100 100 100 100 100 100 100 100 100 100
73 73 70 69 76 77 71 64 69 76 71 76 87 74 74 81 94 96 100 100 100 100 98 99 100 98 92 94 97 100 100 100 100 100 100 100 100 100 100 100 100 100 100
100 98 91 74 72 73 69 66 70 74 74 77 73 74 81 92 87 88 91 85 82 85 87 91 96 99 96 98 96 100 100 100 100 100 100 100 100 100 100 100 100 100 100
100 100 89 81 84 83 83 84 81 75 75 78 83 82 76 73 79 85 91 90 91 89 90 97 100 100 100 100 100 100 100 100 100 100 100 100 100 100 100 100 100 100 100
100 100 98 100 100 100 100 100 100 100 100 100 100 100 99 92 96 99 97 93 94 100 100 100 99 97 96 95 94 92 97 92 100 100 100 100 100 100 100 100 100 100 100
100 100 100 100 94 90 92 91 92 97 97 97 99 98 88 77 73 76 83 78 64 58 56 61 59 61 67 72 74 78 97 100 100 100 100 100 100 100 100 100 100 100 100
84 81 70 60 63 71 72 70 72 70 67 64 61 59 64 61 52 45 36 23 17 15 16 16 18 21 24 29 37 44 54 69 92 99 100 100 100 100 100 100 100 100 100
77 77 83 83 80 77 73 65 60 60 64 64 60 58 55 48 43 30 17 18 16 15 16 17 17 16 16 19 25 30 41 62 75 90 88 97 100 100 100 100 100 100 94
86 83 88 80 74 72 63 63 67 64 58 53 60 59 50 43 36 27 19 16 16 17 17 17 14 12 13 14 18 29 39 48 59 67 81 95 97 99 100 97 93 88 85
81 80 79 76 76 70 69 64 56 51 63 68 55 50 44 32 27 19 13 12 12 11 13 16 14 12 11 12 13 20 38 54 61 68 84 100 99 100 98 98 93 91 86
83 84 74 70 66 64 60 56 74 69 53 56 56 51 46 36 31 35 30 31 33 31 26 18 17 15 17 20 26 34 48 59 68 69 84 99 99 98 98 79 74 75 81
80 78 74 72 72 76 73 64 54 52 56 62 61 58 54 46 46 56 54 61 53 49 39 32 34 41 54 59 68 71 74 74 75 79 93 98 96 89 88 90 90 79 79
91 91 92 87 80 59 52 52 58 62 62 66 69 70 60 59 56 58 67 66 67 65 66 66 64 57 56 58 61 70 80 85 84 83 85 81 77 78 85 81 79 80 82
98 88 62 56 51 52 58 64 69 69 67 76 67 67 71 69 68 76 70 65 68 63 65 66 70 76 82 82 82 78 77 78 75 81 88 92 93 88 98 100 97 98 100
62 60 55 52 56 68 66 68 75 75 76 77 62 64 65 74 79 90 85 82 76 74 77 86 88 87 85 82 82 84 88 91 93 96 97 100 100 100 100 100 100 100 100
60 59 60 67 68 75 84 71 77 91 87 86 72 64 64 73 74 72 71 73 72 77 84 90 92 94 97 100 99 100 100 100 100 100 100 100 100 100 100 100 99 86 68
71 72 76 77 79 82 81 78 81 86 97 96 81 64 66 67 76 80 78 88 97 98 95 93 94 98 96 91 83 82 90 96 100 100 100 100 100 93 85 79 72 60 53
91 87 86 92 94 91 86 84 87 92 89 72 66 67 71 76 79 77 84 95 99 98 93 87 85 87 85 78 76 75 83 91 93 88 84 83 80 74 68 63 58 48 40
83 76 75 77 85 90 82 80 82 85 81 76 77 77 73 75 79 76 85 99 99 89 87 92 89 81 84 78 76 74 74 75 75 78 79 75 68 61 53 46 38 28 22
67 66 70 71 78 87 82 81 86 85 85 80 75 76 78 79 79 91 95 94 91 90 93 96 90 79 77 77 78 78 74 76 78 76 70 61 53 44 38 32 22 22 17
Wind_Speed
90 88 88 87 87 87 86 86 84 86 84 82 81 80 80 80 80 81 80 82 81 81 81 81 80 77 75 74 73 71 71 70 68 68 70 71 73 74 74 72 75 77 77
92 89 87 87 87 85 85 85 85 86 85 83 83 82 81 79 79 79 81 81 83 82 82 80 80 78 76 76 74 72 72 72 75 74 74 74 76 77 76 78 80 80 80
97 94 91 88 86 86 86 85 85 86 88 85 84 78 77 76 78 80 83 82 83 82 81 81 81 82 83 80 77 74 73 72 73 74 75 76 77 80 82 82 85 83 83
99 96 94 91 89 87 85 84 82 83 85 83 79 78 79 78 82 83 85 85 83 83 82 83 82 82 82 80 78 79 77 77 80 80 82 81 82 85 86 87 86 86 85
96 96 92 88 87 87 85 84 83 83 83 82 81 82 82 83 82 85 87 86 84 84 84 83 83 82 80 82 82 83 83 81 81 84 85 87 88 88 88 88 89 88 85
95 95 95 94 91 88 85 83 82 83 83 83 84 85 85 86 86 88 87 88 88 88 86 84 83 84 82 84 85 86 88 87 87 89 90 92 92 92 91 90 88 89 88
94 95 91 90 87 84 83 83 85 85 84 84 86 87 88 88 89 90 90 90 89 90 91 90 89 90 90 90 90 89 91 91 91 93 93 93 93 92 95 92 91 90 88
81 80 80 80 80 81 81 82 81 81 83 84 84 87 87 87 87 89 90 91 93 95 97 99 99 98 98 98 98 96 96 97 96 95 96 97 97 96 94 94 94 94 96
74 75 76 79 80 81 81 82 82 82 83 85 86 86 88 88 90 92 94 96 97 99 101 102 104 105 105 105 104 102 101 101 101 99 97 96 97 96 94 95 84 88 97
74 74 75 75 76 77 78 79 80 83 84 85 87 89 92 93 95 96 99 101 103 105 107 107 108 109 109 108 109 109 108 105 103 101 97 98 100 102 101 98 93 101 101
83 81 82 81 79 79 79 80 82 82 83 86 88 91 94 97 99 103 106 110 112 113 114 115 117 118 118 118 118 117 117 118 114 109 105 102 97 105 98 97 102 105 104
92 94 94 92 94 98 98 96 95 94 94 96 97 101 104 107 111 116 119 122 124 124 125 126 124 124 125 125 122 119 116 114 111 108 106 105 105 105 104 105 106 105 103
82 83 83 82 82 80 81 86 91 95 98 98 99 99 99 101 103 105 108 108 106 104 105 106 105 105 108 110 112 114 112 111 108 107 107 106 104 104 104 101 96 92 90
69 69 67 66 65 66 65 67 70 71 72 77 77 79 81 84 87 97 96 94 92 92 94 93 89 88 88 87 92 96 102 101 100 98 95 93 92 89 90 90 91 93 93
61 61 61 62 62 65 65 65 64 65 66 65 63 63 68 68 76 86 82 80 79 81 81 81 80 77 73 72 73 78 89 93 93 88 82 81 80 80 83 83 85 86 83
59 59 60 58 59 59 58 57 57 54 51 51 51 50 51 52 54 50 45 45 41 46 48 48 52 49 48 46 47 53 66 76 80 77 71 64 66 69 74 76 76 77 75
55 54 53 52 52 51 49 45 43 46 42 42 39 38 38 43 39 30 29 28 26 27 31 33 33 33 29 27 29 36 45 54 59 59 57 56 63 64 64 69 73 71 71
49 47 43 43 43 42 39 40 40 40 34 33 32 31 30 30 26 29 28 30 31 26 19 17 14 12 11 10 9 13 19 26 33 39 45 51 56 58 59 56 55 58 61
36 36 35 35 36 36 35 34 33 31 29 29 28 29 31 28 23 20 23 23 23 25 28 27 28 24 22 17 15 13 10 9 12 16 22 28 35 41 48 54 59 63 67
28 28 31 33 34 35 33 30 30 30 26 27 27 27 29 28 21 20 20 21 24 25 25 24 23 21 20 19 17 17 19 21 24 27 32 37 43 48 54 60 65 71 76
24 29 31 32 31 30 29 28 28 27 28 29 30 29 27 25 21 21 20 20 20 20 21 23 24 25 26 26 26 26 28 30 33 37 41 46 51 55 60 66 72 78 83
26 23 23 22 21 19 22 24 25 28 30 34 33 32 30 24 21 19 19 21 21 21 21 22 23 23 25 26 28 31 34 36 39 42 46 50 55 60 65 70 76 82 87
18 20 18 17 19 19 20 22 24 24 26 29 30 29 25 23 22 23 23 23 21 21 22 24 25 26 29 31 32 34 35 38 42 45 49 53 57 63 69 75 81 87 91
17 17 17 18 20 22 22 22 21 22 23 19 20 21 23 23 24 25 24 24 25 27 27 28 30 33 34 35 38 39 40 41 44 48 51 55 61 67 74 79 86 91 92
23 21 21 21 22 22 22 22 22 23 22 22 23 23 24 25 26 26 26 26 29 31 32 34 36 38 39 40 41 43 45 47 50 53 58 63 68 75 79 85 89 87 84
27 27 27 25 24 23 23 25 25 25 26 27 27 26 26 27 27 28 28 30 32 34 36 37 39 40 41 43 46 49 52 55 58 62 67 71 76 81 85 82 78 75 76
Wind_Direction
244 247 250 252 255 257 260 261 264 266 267 268 270 271 273 275 277 278 280 282 282 284 286 288 289 289 287 285 285 283 282 283 282 284 284 288 289 291 294 295 297 299 301
243 247 250 253 253 256 258 261 263 265 266 267 269 272 274 277 277 279 279 280 283 284 285 284 285 285 283 283 283 281 281 279 280 281 283 284 288 291 292 294 296 298 300
244 246 249 253 256 258 258 261 263 265 266 268 270 271 273 274 276 276 277 278 281 280 280 280 281 283 281 280 280 280 280 280 281 282 282 284 287 287 290 292 296 297 298
243 246 250 252 254 257 259 262 263 264 266 269 271 272 271 271 274 275 277 278 277 276 278 278 278 279 279 279 280 279 281 281 281 282 284 286 287 289 292 294 294 296 297
244 245 248 252 255 256 258 259 262 265 267 268 271 272 271 272 272 273 274 273 273 274 275 276 276 276 277 278 280 281 281 281 282 282 285 287 288 289 290 295 295 296 295
245 246 247 249 251 253 257 260 263 263 265 266 268 269 271 274 273 273 272 273 274 275 275 274 275 276 276 277 278 280 280 280 282 284 284 285 285 288 292 292 292 292 291
247 248 251 252 253 253 256 259 260 261 262 264 266 268 271 271 271 271 272 272 272 273 273 273 274 274 275 277 277 278 279 279 280 281 282 283 285 286 288 289 288 287 286
251 252 253 254 256 257 258 260 260 262 265 266 267 270 269 269 269 269 270 271 272 273 275 275 275 276 275 276 277 277 276 277 277 278 280 281 282 281 285 286 287 283 288
247 249 251 254 257 259 261 261 261 264 266 267 268 269 270 270 271 272 272 273 273 274 275 276 276 275 276 276 277 276 276 276 276 277 279 280 278 282 282 285 281 282 289
240 244 249 254 256 258 260 262 264 266 267 267 269 270 271 271 272 272 272 273 274 275 274 273 273 274 274 275 275 276 275 275 275 276 275 275 277 279 280 282 277 281 284
242 245 248 251 254 256 257 258 260 262 263 264 265 266 268 269 269 270 271 273 272 271 271 272 272 273 273 273 273 274 274 274 274 273 273 272 272 274 277 278 279 281 284
248 249 253 257 257 258 260 261 263 264 266 268 269 269 270 273 273 275 275 275 276 275 274 274 273 273 272 271 271 271 270 270 271 272 272 272 273 277 279 278 279 280 283
250 252 256 258 259 261 263 264 265 267 269 271 272 274 275 276 277 278 276 276 278 279 277 275 274 273 271 269 267 266 265 265 265 266 268 270 272 273 274 276 277 280 281
252 255 257 259 259 261 263 265 267 269 270 272 277 280 282 282 281 280 286 286 285 283 281 280 279 275 272 271 268 266 262 261 263 264 267 269 270 272 273 273 275 276 278
253 255 257 259 262 263 266 267 270 271 273 278 279 281 283 288 288 291 291 286 282 282 283 281 280 279 278 275 270 263 259 258 258 261 264 267 269 270 271 273 274 277 278
254 255 258 261 262 264 266 269 272 274 275 276 279 282 291 297 302 302 293 289 291 288 285 279 278 277 276 270 263 254 249 251 254 259 260 265 269 269 272 273 273 275 276
258 259 260 262 262 264 268 270 271 272 275 275 280 290 303 309 326 348 348 333 313 305 298 291 285 280 278 271 262 255 251 252 255 259 261 262 262 267 270 276 278 282 286
259 259 257 258 262 264 267 269 269 269 269 276 282 294 307 316 339 353 5 25 23 16 353 354 353 355 350 322 299 277 268 264 260 257 258 263 269 276 280 284 285 283 285
248 250 253 257 261 264 266 267 264 261 268 280 281 293 303 314 331 345 6 14 24 26 33 34 35 36 34 42 44 22 5 335 298 285 283 285 285 286 288 289 291 292 291
241 245 252 258 259 262 269 265 263 263 274 280 277 288 298 305 318 339 354 2 6 12 15 19 20 17 11 7 354 338 330 319 310 303 297 294 293 294 294 293 293 294 293
242 252 254 259 264 262 259 260 260 269 277 281 277 286 289 291 306 323 334 342 347 355 359 359 356 352 347 342 336 328 321 313 308 303 301 298 295 293 295 294 291 290 290
248 255 264 266 265 265 261 259 264 273 279 280 281 280 287 287 294 303 316 325 332 340 343 345 343 340 336 330 322 315 309 305 301 296 294 293 292 292 291 290 290 289 290
251 256 260 265 267 268 264 259 264 265 265 272 275 277 273 280 294 304 313 318 319 320 321 327 327 326 323 320 317 315 313 308 303 299 297 295 293 293 293 293 293 296 298
249 258 264 269 268 265 261 261 263 263 269 266 268 268 275 287 294 301 308 310 310 313 311 313 314 312 314 316 318 320 316 310 305 303 302 301 299 297 297 298 299 300 301
260 264 267 271 274 264 263 256 259 261 265 267 270 275 281 286 292 297 303 304 303 303 305 304 305 307 310 312 312 312 311 308 307 305 304 303 302 302 303 303 304 305 303
262 264 267 264 266 260 263 257 260 265 269 267 270 279 283 286 294 298 298 300 304 304 306 304 303 305 307 309 310 311 313 312 310 308 307 307 307 308 309 308 309 309 307